Flag for Mozambique Weather past 2 weeks in Maputo, Mozambique

Now
61 °F

Passing clouds.


Feels Like: 61 °F
Forecast: 55 / 70 °F
Wind: 12 mph from Southwest

Location: Maputo / Mavalane

Current Time: Jul 29, 2014 at 1:22:50 AM

Latest Report: Jul 29, 2014 at 1:00 AM


Visibility: N/A

Pressure: 30.54 "Hg

Humidity: 68%

Dew point: 50 °F

Location of MaputoLocation

Historic Weather in Maputo — Graph

°F

Maputo temperature yesterday

Maximum temperature yesterday: 77 °F (at 1:00 PM)
Minimum temperature yesterday: 57 °F (at 10:00 PM)
Average temperature yesterday: 69 °F

Past Weeks' High & Low Weather Summary

 TemperatureHumidityPressure
High90 °F (Jul 17, 3:00 PM)100% (Jul 16, 5:00 AM)30.54 "Hg (Jul 16, 5:00 AM)
Low54 °F (Jul 18, 7:00 AM)13% (Jul 17, 4:00 PM)29.86 "Hg (Jul 18, 5:00 AM)
Average70 °F60%30.17 "Hg
* Reported Jul 13 11:00 PM — Jul 28 11:00 PM, Maputo, Weather by CustomWeather, © 2014

Note: Actual official high and low records may vary slightly from our data, if they occured in-between our weather recording intervals... More about our weather records

Advertising

Maputo weather history for previous 24 hours

 ConditionsComfort  
Time TempWeatherWind HumidityBarometerVisibility
11:00 PM
Jul 28
63 °FPassing clouds.12 mph64%30.54 "HgN/A
10:00 PM57 °FPassing clouds.16 mph82%30.54 "HgN/A
9:00 PM66 °FPassing clouds.14 mph64%30.54 "HgN/A
8:00 PM68 °FPassing clouds.15 mph64%30.51 "HgN/A
7:00 PM68 °FPassing clouds.14 mph73%30.48 "HgN/A
6:00 PM70 °FPassing clouds.13 mph69%30.45 "HgN/A
5:00 PM72 °FPassing clouds.14 mph65%30.42 "HgN/A
4:00 PM75 °FPassing clouds.12 mph57%30.42 "HgN/A
3:00 PM75 °FScattered clouds.10 mph54%30.39 "HgN/A
2:00 PM75 °FScattered clouds.9 mph47%30.39 "HgN/A
1:00 PM77 °FScattered clouds.10 mph42%30.39 "HgN/A
12:00 PM75 °FScattered clouds.12 mph50%30.42 "HgN/A
11:00 AM75 °FScattered clouds.13 mph50%30.42 "HgN/A
10:00 AM73 °FScattered clouds.10 mph50%30.45 "HgN/A
9:00 AM68 °FScattered clouds.10 mph56%30.42 "HgN/A
8:00 AM66 °FScattered clouds.9 mph56%30.42 "HgN/A
7:00 AM63 °FScattered clouds.10 mph59%30.39 "HgN/A
6:00 AM63 °FPartly sunny.9 mph64%30.36 "HgN/A
5:00 AM61 °FPassing clouds.8 mph68%30.36 "HgN/A
Weather by CustomWeather, © 2014

See weather overviewHow to use our weather pages